Regional Weather Roundup
Issued by NWS

Home | Current Version | Previous Version | Text Only | Print | Product List | Glossary Off
Versions: 1 2 3 4 5 6 7 8 9 10 11 12 13 14 15 16 17 18 19 20 21 22 23 24 25 26 27 28 29 30 31 32 33 34 35 36 37 38 39 40 41 42 43 44 45 46 47 48 49 50

000
ASUS43 KOAX 191610
RWRNE

WEATHER ROUNDUP FOR NEBRASKA
NATIONAL WEATHER SERVICE OMAHA NE
1100 AM CDT SUN APR 19 2015

NOTES: SATELLITE DATA IS BEING USED TO AUGMENT CLOUD COVER ABOVE
       12000 FEET.
       "FAIR" INDICATES FEW OR NO CLOUDS BELOW 12,000 FEET WITH NO
       SIGNIFICANT WEATHER AND/OR OBSTRUCTIONS TO VISIBILITY.

  * THESE STATIONS DO NOT REPORT WEATHER SUCH AS RAIN...SNOW OR FOG.

NEZ001>004-019>022-054>056-191700-
NEBRASKA PANHANDLE

CITY           SKY/WX    TMP DP  RH WIND       PRES   REMARKS
SCOTTSBLUFF    MOSUNNY   46  32  58 N24G39    30.11F
ALLIANCE       MOSUNNY   43  23  45 N26G37    30.06F
CHADRON        SUNNY     46  27  47 NW18G32   30.10F
KIMBALL        MOSUNNY   40  24  52 N28       30.08F WCI  29
SIDNEY         MOSUNNY   44  27  51 N28G35    30.08S
$$

NEZ057>060-069>072-079>082-191700-
SOUTHWEST NEBRASKA

CITY           SKY/WX    TMP DP  RH WIND       PRES   REMARKS
NORTH PLATTE   CLOUDY    48  28  46 N25G35    29.98R
IMPERIAL       MOSUNNY   48  31  51 N29G41    30.03R
LEXINGTON      CLOUDY    47  38  71 N22G29    29.95R
MCCOOK         CLOUDY    49  40  71 N20G29    29.98R
OGALLALA       MOSUNNY   49  27  43 N26G38    30.04R
$$

NEZ005>010-023>029-035>040-094-191700-
NORTH CENTRAL NEBRASKA

CITY           SKY/WX    TMP DP  RH WIND       PRES   REMARKS
VALENTINE      MOSUNNY   48  29  47 NW28G36   29.97F
AINSWORTH      PTSUNNY   47  32  56 N33G39    29.96R
BROKEN BOW     CLOUDY    47  32  56 N36G43    29.92R
O`NEILL        CLOUDY    48  32  54 NW26G38   29.89R
ORD            CLOUDY    47  31  53 N29G41    29.88R
THEDFORD       MOSUNNY   50  31  46 N26G36    29.98R
$$

NEZ041-046>049-061>064-073>077-083>087-191700-
SOUTH CENTRAL NEBRASKA

CITY           SKY/WX    TMP DP  RH WIND       PRES   REMARKS
GRAND ISLAND   LGT RAIN  48  38  68 N25G41    29.88R
AURORA         LGT RAIN  48  45  89 N25G32    29.85R
HASTINGS       LGT RAIN  48  42  80 N26G39    29.87R
HEBRON         CLOUDY    52  46  82 N13G28    29.81R
HOLDREGE       RAIN      44  35  72 N28G44    29.94R
KEARNEY *        N/A    N/A N/A N/A MISG        N/A
YORK           LGT RAIN  48  46  93 N15G21    29.82S
$$

NEZ011>018-030>034-042>045-191700-
NORTHEAST NEBRASKA

CITY           SKY/WX    TMP DP  RH WIND       PRES   REMARKS
ALBION         CLOUDY    48  35  60 N23G35    29.83R
BLAIR          RAIN      50  49  95 NW20G25   29.74S
COLUMBUS *     CLOUDY    48  39  71 N18G32    29.82R
FREMONT        RAIN      51  49  92 NW17G26   29.77S
TEKAMAH        RAIN      52  50  93 NW23      29.75F FOG
WAYNE          CLOUDY    49  44  84 NW29      29.81R
$$

NEZ050>053-065>068-078-088>093-191700-
SOUTHEAST NEBRASKA

CITY           SKY/WX    TMP DP  RH WIND       PRES   REMARKS
LINCOLN        CLOUDY    53  49  86 N22G31    29.77S
OMAHA EPPLEY   LGT RAIN  53  51  93 NW14G24   29.73S
BEATRICE       CLOUDY    54  49  85 N18G25    29.76S
FALLS CITY     CLOUDY    57  53  86 NW16      29.70S
NEBRASKA CITY  DRIZZLE   53  53 100 NW18G24   29.72R
PLATTSMOUTH    CLOUDY    52  51  95 NW18G29   29.71S
$$

NEZ044-045-051>053-067-191700-
OMAHA AREA

CITY           SKY/WX    TMP DP  RH WIND       PRES   REMARKS
OMAHA EPPLEY   LGT RAIN  53  51  93 NW14G24   29.73S
BLAIR          RAIN      50  49  95 NW20G25   29.74S
FREMONT        RAIN      51  49  92 NW17G26   29.77S
MILLARD        LGT RAIN  53  50  91 NW15G22   29.73F
OFFUTT AFB     LGT RAIN  53  53  99 NW20G26   29.71S
PLATTSMOUTH    CLOUDY    52  51  95 NW18G29   29.71S
WAHOO          RAIN      51  48  90 NW20G29   29.76S
$$



USA.gov is the U.S. government's official web portal to all federal, state and local government web resources and services.